GEFSMA_prec_meanprecacc_180.txt.gz
Total_Precipitation_Accumulation
0.39 0.36 0.35 0.33 0.31 0.30 0.28 0.27 0.25 0.22 0.21 0.19 0.18 0.18 0.21 0.23 0.21 0.17 0.15 0.13 0.10 0.11 0.18 0.33 0.58 0.84 1.04 1.15 1.15 1.01 0.93 0.81 0.64 0.55 0.53 0.60 0.63 0.63 0.66 0.77 0.74 0.63 0.60
0.31 0.26 0.25 0.23 0.20 0.19 0.17 0.15 0.13 0.13 0.12 0.12 0.11 0.12 0.14 0.17 0.19 0.19 0.20 0.22 0.17 0.14 0.16 0.23 0.36 0.60 0.91 1.12 1.23 1.20 1.07 0.99 0.82 0.65 0.57 0.57 0.62 0.63 0.63 0.70 0.78 0.75 0.65
0.32 0.27 0.25 0.22 0.19 0.18 0.17 0.15 0.13 0.10 0.09 0.07 0.06 0.07 0.08 0.09 0.12 0.15 0.18 0.22 0.23 0.20 0.18 0.22 0.29 0.44 0.74 1.04 1.22 1.35 1.26 1.13 1.02 0.88 0.69 0.58 0.60 0.65 0.64 0.67 0.75 0.83 0.80
0.37 0.31 0.27 0.25 0.22 0.22 0.20 0.19 0.16 0.13 0.10 0.08 0.07 0.06 0.08 0.08 0.07 0.09 0.14 0.16 0.19 0.21 0.20 0.21 0.29 0.43 0.61 0.88 1.14 1.40 1.51 1.35 1.26 1.20 1.01 0.78 0.63 0.65 0.68 0.68 0.74 0.83 0.92
0.42 0.37 0.31 0.28 0.27 0.29 0.27 0.23 0.21 0.18 0.14 0.10 0.09 0.07 0.06 0.06 0.06 0.09 0.11 0.15 0.17 0.18 0.21 0.21 0.25 0.35 0.48 0.71 1.06 1.40 1.73 1.77 1.60 1.47 1.31 1.13 0.90 0.73 0.73 0.72 0.76 0.85 0.95
0.46 0.42 0.38 0.33 0.31 0.31 0.30 0.26 0.23 0.20 0.18 0.15 0.13 0.09 0.05 0.04 0.04 0.06 0.08 0.13 0.16 0.17 0.19 0.24 0.27 0.25 0.27 0.40 0.64 1.02 1.40 1.74 1.81 1.73 1.62 1.44 1.23 1.01 0.88 0.82 0.81 0.90 1.01
0.52 0.47 0.41 0.38 0.34 0.31 0.27 0.24 0.24 0.24 0.20 0.16 0.16 0.13 0.09 0.05 0.04 0.05 0.08 0.13 0.17 0.23 0.29 0.34 0.41 0.38 0.30 0.29 0.32 0.46 0.81 1.31 1.67 1.84 1.85 1.80 1.58 1.33 1.12 0.98 0.94 0.99 1.07
0.57 0.56 0.48 0.40 0.36 0.33 0.30 0.26 0.23 0.24 0.24 0.21 0.22 0.23 0.16 0.09 0.06 0.06 0.07 0.11 0.18 0.28 0.39 0.44 0.49 0.50 0.46 0.36 0.25 0.25 0.37 0.74 1.29 1.76 1.91 1.93 1.98 1.78 1.45 1.22 1.10 1.12 1.19
0.54 0.57 0.55 0.48 0.39 0.35 0.33 0.28 0.24 0.23 0.24 0.20 0.21 0.37 0.42 0.24 0.10 0.04 0.04 0.06 0.09 0.13 0.20 0.29 0.36 0.41 0.47 0.48 0.39 0.30 0.28 0.43 0.80 1.41 1.93 2.04 2.08 2.19 1.98 1.56 1.30 1.22 1.26
0.57 0.53 0.57 0.54 0.48 0.39 0.34 0.30 0.26 0.24 0.28 0.28 0.21 0.22 0.31 0.32 0.33 0.17 0.05 0.04 0.04 0.05 0.06 0.10 0.16 0.23 0.34 0.44 0.48 0.43 0.37 0.37 0.57 0.95 1.59 2.13 2.20 2.31 2.43 2.09 1.65 1.40 1.33
0.66 0.57 0.54 0.57 0.53 0.46 0.37 0.31 0.28 0.27 0.29 0.33 0.31 0.25 0.21 0.19 0.22 0.31 0.15 0.05 0.06 0.05 0.04 0.05 0.07 0.11 0.17 0.27 0.36 0.43 0.46 0.40 0.50 0.71 1.07 1.72 2.32 2.50 2.62 2.50 2.05 1.63 1.40
0.75 0.70 0.58 0.56 0.54 0.50 0.43 0.35 0.31 0.30 0.29 0.30 0.31 0.31 0.33 0.32 0.24 0.29 0.24 0.09 0.05 0.05 0.05 0.05 0.06 0.08 0.11 0.17 0.23 0.36 0.43 0.45 0.45 0.56 0.70 1.07 1.82 2.48 2.71 2.62 2.32 1.94 1.58
0.81 0.72 0.68 0.59 0.58 0.53 0.46 0.41 0.39 0.36 0.31 0.32 0.33 0.33 0.31 0.30 0.27 0.31 0.34 0.21 0.11 0.05 0.04 0.06 0.07 0.09 0.12 0.14 0.18 0.25 0.32 0.40 0.45 0.51 0.51 0.59 0.96 1.79 2.57 2.82 2.57 2.22 1.91
0.80 0.70 0.68 0.62 0.58 0.57 0.53 0.49 0.45 0.41 0.38 0.36 0.33 0.33 0.32 0.28 0.29 0.34 0.39 0.43 0.33 0.12 0.05 0.04 0.05 0.08 0.12 0.14 0.16 0.21 0.21 0.28 0.36 0.42 0.45 0.47 0.55 0.90 1.69 2.62 3.15 2.84 2.34
0.87 0.79 0.71 0.68 0.64 0.62 0.57 0.54 0.53 0.47 0.45 0.44 0.41 0.38 0.38 0.34 0.33 0.35 0.36 0.45 0.61 0.43 0.12 0.04 0.05 0.07 0.10 0.14 0.19 0.19 0.18 0.21 0.28 0.35 0.39 0.42 0.48 0.58 0.90 1.57 2.54 3.23 3.11
0.92 0.91 0.84 0.77 0.71 0.70 0.67 0.62 0.59 0.54 0.52 0.48 0.47 0.46 0.45 0.42 0.40 0.40 0.41 0.40 0.47 0.55 0.34 0.07 0.07 0.08 0.11 0.14 0.19 0.20 0.20 0.23 0.24 0.29 0.34 0.37 0.42 0.52 0.68 0.99 1.58 2.51 3.12
1.00 0.97 0.97 0.91 0.82 0.77 0.78 0.76 0.70 0.65 0.61 0.53 0.50 0.52 0.51 0.47 0.46 0.42 0.42 0.41 0.40 0.46 0.46 0.14 0.07 0.10 0.15 0.19 0.20 0.20 0.21 0.19 0.18 0.22 0.28 0.36 0.41 0.49 0.62 0.80 1.08 1.68 2.56
1.05 1.05 1.11 1.09 0.99 0.87 0.82 0.85 0.85 0.80 0.77 0.71 0.65 0.61 0.60 0.59 0.60 0.56 0.54 0.48 0.43 0.42 0.48 0.34 0.13 0.10 0.17 0.25 0.30 0.28 0.23 0.20 0.17 0.19 0.24 0.31 0.39 0.46 0.57 0.71 0.88 1.17 1.76
1.00 1.12 1.23 1.28 1.21 1.11 0.97 0.86 0.91 0.98 0.99 0.97 0.92 0.89 0.84 0.79 0.81 0.76 0.72 0.63 0.51 0.43 0.43 0.43 0.26 0.16 0.19 0.27 0.37 0.37 0.32 0.25 0.20 0.21 0.25 0.29 0.35 0.40 0.48 0.59 0.73 0.90 1.17
0.94 1.12 1.25 1.37 1.39 1.39 1.40 1.27 1.15 1.03 1.00 1.04 1.05 1.04 1.08 1.08 1.07 1.01 0.96 0.80 0.64 0.56 0.50 0.50 0.40 0.27 0.24 0.30 0.47 0.52 0.47 0.37 0.28 0.23 0.27 0.28 0.33 0.39 0.40 0.43 0.48 0.62 0.89
0.92 1.04 1.16 1.26 1.28 1.44 1.82 1.87 1.47 1.01 0.86 0.85 0.84 0.84 0.92 1.07 1.17 1.22 1.23 1.07 0.93 0.88 0.77 0.71 0.60 0.48 0.39 0.43 0.57 0.62 0.66 0.59 0.49 0.38 0.31 0.25 0.26 0.27 0.28 0.33 0.42 0.52 0.71
0.90 1.00 1.05 1.06 1.06 1.24 1.68 1.79 1.31 0.90 0.73 0.69 0.68 0.65 0.67 0.80 0.89 0.97 1.10 1.15 1.20 1.27 1.20 1.04 0.87 0.72 0.54 0.50 0.57 0.74 0.82 0.88 0.81 0.56 0.47 0.39 0.33 0.31 0.28 0.27 0.32 0.42 0.59
0.85 0.89 0.90 0.85 0.82 0.97 1.37 1.45 1.12 0.79 0.65 0.55 0.52 0.51 0.49 0.54 0.65 0.63 0.73 0.86 1.01 1.19 1.32 1.28 1.20 0.93 0.68 0.57 0.67 0.84 0.91 0.98 0.88 0.73 0.75 0.72 0.58 0.46 0.38 0.36 0.40 0.43 0.52
0.85 0.81 0.76 0.70 0.65 0.74 1.12 1.29 1.05 0.74 0.65 0.56 0.52 0.46 0.40 0.41 0.53 0.60 0.67 0.68 0.69 0.85 1.11 1.26 1.34 1.15 0.89 0.78 0.91 1.10 1.21 1.19 1.03 0.95 0.99 1.02 0.78 0.63 0.56 0.52 0.49 0.45 0.46
0.75 0.75 0.69 0.65 0.56 0.57 0.93 1.28 1.13 0.79 0.69 0.62 0.56 0.51 0.44 0.37 0.55 0.66 0.60 0.54 0.50 0.59 0.75 1.00 1.17 1.19 1.13 1.11 1.18 1.37 1.48 1.53 1.42 1.18 1.14 1.19 1.03 0.81 0.75 0.75 0.67 0.56 0.47
0.59 0.63 0.59 0.57 0.49 0.47 0.71 1.18 1.27 0.85 0.71 0.60 0.54 0.51 0.58 0.56 0.63 0.62 0.51 0.51 0.56 0.53 0.51 0.57 0.64 0.73 0.77 0.80 1.01 1.23 1.36 1.50 1.51 1.52 1.31 1.24 1.28 1.20 1.22 0.98 0.78 0.57 0.48

GEFSMA_prec_meanprecacc_186.txt.gz
Total_Precipitation_Accumulation
0.48 0.46 0.45 0.43 0.40 0.39 0.37 0.37 0.37 0.33 0.30 0.26 0.24 0.23 0.24 0.26 0.23 0.19 0.16 0.14 0.11 0.12 0.20 0.35 0.59 0.86 1.06 1.16 1.16 1.02 0.94 0.82 0.65 0.56 0.53 0.61 0.64 0.63 0.67 0.77 0.75 0.64 0.61
0.40 0.37 0.36 0.34 0.31 0.28 0.25 0.24 0.23 0.23 0.23 0.21 0.17 0.16 0.18 0.20 0.21 0.21 0.21 0.23 0.17 0.15 0.17 0.25 0.38 0.62 0.92 1.14 1.24 1.21 1.08 0.99 0.83 0.66 0.57 0.57 0.63 0.63 0.64 0.70 0.79 0.76 0.66
0.42 0.40 0.37 0.33 0.29 0.28 0.27 0.25 0.24 0.20 0.18 0.17 0.14 0.12 0.12 0.13 0.15 0.18 0.20 0.23 0.24 0.21 0.20 0.23 0.30 0.46 0.76 1.05 1.23 1.36 1.27 1.13 1.03 0.89 0.70 0.58 0.61 0.65 0.65 0.68 0.76 0.84 0.81
0.45 0.42 0.41 0.38 0.34 0.33 0.32 0.31 0.27 0.24 0.20 0.17 0.15 0.13 0.12 0.11 0.11 0.13 0.17 0.18 0.21 0.22 0.21 0.22 0.30 0.44 0.63 0.90 1.16 1.41 1.51 1.36 1.26 1.20 1.01 0.79 0.64 0.66 0.69 0.69 0.76 0.85 0.94
0.48 0.45 0.43 0.44 0.43 0.44 0.41 0.35 0.32 0.28 0.25 0.20 0.17 0.15 0.12 0.10 0.10 0.12 0.15 0.18 0.20 0.20 0.22 0.22 0.26 0.35 0.50 0.73 1.08 1.42 1.75 1.78 1.60 1.48 1.32 1.13 0.90 0.74 0.74 0.74 0.77 0.86 0.96
0.53 0.50 0.48 0.48 0.50 0.50 0.47 0.42 0.35 0.31 0.29 0.26 0.25 0.21 0.15 0.10 0.09 0.09 0.11 0.16 0.19 0.21 0.22 0.26 0.28 0.25 0.28 0.41 0.66 1.03 1.41 1.75 1.83 1.73 1.63 1.44 1.24 1.03 0.90 0.84 0.83 0.91 1.02
0.60 0.57 0.53 0.53 0.51 0.51 0.48 0.44 0.41 0.39 0.34 0.30 0.31 0.30 0.24 0.16 0.11 0.10 0.12 0.15 0.19 0.25 0.32 0.37 0.43 0.40 0.31 0.30 0.33 0.47 0.82 1.32 1.68 1.85 1.85 1.80 1.59 1.34 1.14 1.00 0.96 1.01 1.08
0.63 0.67 0.61 0.57 0.54 0.51 0.51 0.51 0.47 0.45 0.42 0.37 0.35 0.38 0.32 0.24 0.16 0.12 0.13 0.16 0.22 0.32 0.43 0.47 0.52 0.53 0.47 0.37 0.26 0.26 0.38 0.74 1.30 1.77 1.92 1.94 1.99 1.81 1.47 1.24 1.12 1.14 1.22
0.60 0.65 0.68 0.63 0.59 0.55 0.51 0.50 0.48 0.45 0.44 0.37 0.34 0.48 0.54 0.35 0.18 0.10 0.09 0.12 0.15 0.19 0.25 0.32 0.38 0.43 0.48 0.49 0.39 0.30 0.28 0.43 0.81 1.42 1.93 2.04 2.09 2.21 2.00 1.58 1.33 1.25 1.28
0.64 0.60 0.67 0.69 0.66 0.62 0.55 0.50 0.48 0.46 0.50 0.48 0.36 0.33 0.39 0.40 0.40 0.22 0.09 0.08 0.09 0.10 0.12 0.15 0.19 0.25 0.35 0.44 0.48 0.43 0.37 0.37 0.57 0.95 1.60 2.14 2.21 2.32 2.44 2.10 1.67 1.42 1.34
0.75 0.66 0.64 0.68 0.69 0.67 0.61 0.53 0.49 0.49 0.50 0.53 0.47 0.36 0.30 0.26 0.29 0.37 0.20 0.10 0.10 0.09 0.08 0.09 0.11 0.13 0.18 0.28 0.37 0.43 0.46 0.40 0.50 0.72 1.07 1.73 2.33 2.51 2.63 2.51 2.06 1.65 1.42
0.85 0.81 0.68 0.67 0.68 0.68 0.65 0.57 0.51 0.48 0.47 0.47 0.46 0.42 0.42 0.39 0.30 0.35 0.29 0.14 0.10 0.09 0.09 0.09 0.09 0.10 0.12 0.17 0.24 0.36 0.43 0.45 0.46 0.57 0.70 1.08 1.82 2.49 2.71 2.63 2.33 1.95 1.59
0.94 0.84 0.79 0.71 0.71 0.68 0.65 0.62 0.59 0.51 0.46 0.48 0.48 0.44 0.40 0.37 0.33 0.37 0.39 0.26 0.16 0.10 0.10 0.11 0.11 0.12 0.13 0.15 0.18 0.26 0.33 0.40 0.45 0.51 0.52 0.59 0.96 1.79 2.58 2.82 2.58 2.23 1.92
0.95 0.84 0.81 0.76 0.72 0.73 0.72 0.68 0.63 0.57 0.52 0.50 0.48 0.47 0.43 0.36 0.37 0.41 0.46 0.50 0.40 0.18 0.11 0.10 0.08 0.10 0.13 0.14 0.17 0.21 0.22 0.28 0.37 0.43 0.45 0.48 0.55 0.91 1.70 2.62 3.15 2.84 2.34
1.03 0.96 0.89 0.86 0.80 0.78 0.75 0.73 0.70 0.61 0.59 0.58 0.54 0.52 0.52 0.46 0.43 0.43 0.44 0.54 0.68 0.50 0.17 0.08 0.08 0.09 0.11 0.14 0.19 0.19 0.18 0.22 0.29 0.36 0.40 0.44 0.49 0.59 0.91 1.58 2.55 3.23 3.12
1.08 1.09 1.05 1.00 0.92 0.89 0.85 0.81 0.77 0.68 0.65 0.63 0.61 0.59 0.58 0.55 0.52 0.50 0.50 0.49 0.55 0.61 0.39 0.10 0.09 0.10 0.12 0.14 0.20 0.21 0.21 0.24 0.26 0.31 0.36 0.39 0.43 0.53 0.69 0.99 1.59 2.51 3.12
1.14 1.14 1.15 1.13 1.08 0.99 0.97 0.95 0.88 0.83 0.77 0.69 0.65 0.66 0.64 0.60 0.58 0.52 0.52 0.50 0.48 0.53 0.51 0.17 0.09 0.11 0.17 0.20 0.21 0.21 0.22 0.21 0.19 0.23 0.30 0.37 0.42 0.50 0.63 0.81 1.08 1.68 2.56
1.16 1.19 1.26 1.28 1.23 1.12 1.03 1.03 1.03 0.98 0.96 0.87 0.80 0.76 0.74 0.72 0.72 0.65 0.63 0.58 0.51 0.48 0.52 0.37 0.15 0.12 0.19 0.26 0.32 0.30 0.25 0.22 0.18 0.20 0.25 0.32 0.39 0.46 0.57 0.71 0.88 1.17 1.76
1.10 1.21 1.35 1.45 1.41 1.34 1.22 1.06 1.09 1.18 1.18 1.14 1.07 1.03 0.97 0.94 0.93 0.87 0.82 0.72 0.60 0.50 0.48 0.46 0.29 0.19 0.21 0.29 0.38 0.39 0.34 0.26 0.21 0.22 0.26 0.30 0.35 0.40 0.48 0.59 0.73 0.90 1.17
1.06 1.22 1.34 1.48 1.54 1.59 1.66 1.50 1.33 1.22 1.21 1.23 1.21 1.18 1.19 1.20 1.18 1.12 1.07 0.89 0.72 0.64 0.57 0.56 0.44 0.31 0.27 0.32 0.50 0.54 0.49 0.39 0.29 0.24 0.28 0.29 0.34 0.39 0.40 0.43 0.48 0.63 0.89
1.05 1.17 1.27 1.37 1.40 1.60 2.03 2.10 1.66 1.19 1.06 1.05 1.02 1.00 1.04 1.18 1.29 1.33 1.34 1.17 1.01 0.95 0.84 0.77 0.64 0.51 0.41 0.45 0.59 0.64 0.68 0.61 0.51 0.39 0.31 0.26 0.26 0.27 0.29 0.34 0.42 0.53 0.71
1.02 1.14 1.18 1.18 1.21 1.38 1.86 1.98 1.51 1.08 0.91 0.87 0.85 0.81 0.81 0.93 1.02 1.10 1.22 1.25 1.29 1.33 1.25 1.08 0.91 0.75 0.56 0.51 0.59 0.76 0.83 0.90 0.82 0.57 0.48 0.39 0.33 0.31 0.28 0.27 0.33 0.42 0.60
0.95 1.00 1.02 1.00 1.00 1.14 1.53 1.62 1.30 0.97 0.81 0.70 0.67 0.66 0.65 0.68 0.80 0.77 0.87 0.99 1.11 1.26 1.36 1.31 1.23 0.95 0.70 0.59 0.69 0.87 0.93 0.99 0.89 0.74 0.75 0.73 0.58 0.47 0.38 0.37 0.41 0.43 0.52
0.94 0.90 0.87 0.83 0.81 0.92 1.31 1.48 1.26 0.93 0.82 0.71 0.65 0.59 0.54 0.55 0.68 0.75 0.82 0.82 0.80 0.93 1.16 1.29 1.37 1.17 0.91 0.81 0.94 1.12 1.22 1.20 1.03 0.96 0.99 1.02 0.78 0.63 0.57 0.52 0.50 0.45 0.46
0.83 0.83 0.78 0.76 0.70 0.75 1.13 1.50 1.38 1.01 0.92 0.82 0.72 0.65 0.59 0.51 0.70 0.82 0.76 0.67 0.60 0.67 0.81 1.05 1.21 1.22 1.16 1.14 1.20 1.39 1.49 1.54 1.42 1.18 1.14 1.19 1.03 0.82 0.75 0.75 0.67 0.56 0.47
0.68 0.72 0.68 0.67 0.63 0.63 0.90 1.38 1.50 1.06 0.94 0.82 0.75 0.69 0.74 0.70 0.78 0.78 0.66 0.64 0.66 0.60 0.58 0.63 0.69 0.77 0.80 0.83 1.03 1.24 1.37 1.50 1.52 1.53 1.31 1.25 1.28 1.21 1.23 0.98 0.79 0.57 0.48

GEFSMA_prec_meanprecacc_192.txt.gz
Total_Precipitation_Accumulation
0.54 0.51 0.49 0.48 0.45 0.44 0.43 0.44 0.45 0.44 0.42 0.37 0.32 0.29 0.30 0.31 0.27 0.22 0.18 0.16 0.13 0.15 0.22 0.37 0.61 0.88 1.08 1.18 1.17 1.02 0.95 0.82 0.66 0.57 0.54 0.61 0.64 0.63 0.67 0.78 0.75 0.65 0.62
0.47 0.43 0.41 0.38 0.35 0.33 0.31 0.31 0.31 0.32 0.32 0.31 0.25 0.22 0.23 0.26 0.26 0.26 0.25 0.26 0.20 0.17 0.20 0.27 0.41 0.65 0.95 1.17 1.25 1.22 1.09 1.00 0.84 0.66 0.58 0.58 0.64 0.64 0.64 0.71 0.79 0.77 0.67
0.48 0.46 0.43 0.38 0.33 0.33 0.34 0.34 0.33 0.30 0.27 0.26 0.23 0.19 0.18 0.18 0.21 0.23 0.25 0.28 0.28 0.24 0.22 0.26 0.33 0.50 0.80 1.09 1.25 1.37 1.28 1.14 1.03 0.89 0.70 0.59 0.61 0.66 0.65 0.69 0.77 0.85 0.83
0.51 0.49 0.48 0.44 0.39 0.39 0.40 0.40 0.37 0.34 0.30 0.27 0.24 0.22 0.20 0.17 0.16 0.18 0.23 0.24 0.25 0.26 0.24 0.25 0.33 0.48 0.69 0.95 1.20 1.44 1.53 1.37 1.27 1.21 1.02 0.79 0.65 0.67 0.70 0.70 0.77 0.86 0.95
0.54 0.51 0.50 0.50 0.49 0.50 0.48 0.44 0.40 0.37 0.34 0.30 0.27 0.25 0.22 0.19 0.17 0.18 0.20 0.24 0.26 0.25 0.26 0.26 0.29 0.39 0.54 0.79 1.14 1.45 1.77 1.80 1.62 1.49 1.33 1.14 0.91 0.75 0.75 0.75 0.78 0.87 0.97
0.60 0.57 0.55 0.55 0.57 0.56 0.55 0.50 0.43 0.39 0.37 0.35 0.34 0.32 0.26 0.21 0.17 0.17 0.17 0.21 0.24 0.26 0.26 0.30 0.32 0.29 0.33 0.46 0.72 1.08 1.45 1.78 1.85 1.75 1.64 1.45 1.25 1.04 0.91 0.85 0.83 0.92 1.03
0.67 0.66 0.61 0.62 0.59 0.58 0.55 0.53 0.51 0.48 0.43 0.39 0.42 0.43 0.37 0.29 0.23 0.19 0.19 0.21 0.24 0.29 0.36 0.41 0.47 0.43 0.35 0.35 0.38 0.52 0.86 1.36 1.71 1.88 1.88 1.82 1.60 1.36 1.15 1.01 0.97 1.01 1.09
0.71 0.76 0.71 0.65 0.63 0.58 0.58 0.60 0.57 0.56 0.54 0.47 0.46 0.51 0.45 0.38 0.29 0.22 0.21 0.23 0.27 0.35 0.46 0.51 0.55 0.56 0.50 0.41 0.30 0.30 0.41 0.78 1.33 1.80 1.95 1.96 2.01 1.83 1.49 1.25 1.13 1.15 1.23
0.67 0.74 0.78 0.72 0.67 0.62 0.58 0.57 0.56 0.54 0.55 0.48 0.44 0.60 0.66 0.46 0.26 0.18 0.17 0.19 0.21 0.23 0.28 0.36 0.42 0.45 0.51 0.51 0.42 0.33 0.31 0.46 0.84 1.45 1.96 2.06 2.11 2.23 2.02 1.60 1.35 1.27 1.31
0.71 0.68 0.75 0.77 0.74 0.70 0.63 0.58 0.56 0.54 0.58 0.59 0.48 0.43 0.47 0.46 0.47 0.30 0.16 0.15 0.15 0.16 0.16 0.18 0.23 0.28 0.38 0.47 0.50 0.45 0.39 0.39 0.60 0.98 1.62 2.16 2.23 2.34 2.46 2.13 1.69 1.44 1.36
0.83 0.75 0.72 0.76 0.77 0.75 0.71 0.65 0.60 0.60 0.60 0.63 0.58 0.47 0.40 0.34 0.35 0.44 0.27 0.16 0.16 0.15 0.13 0.13 0.14 0.16 0.21 0.31 0.39 0.44 0.47 0.42 0.51 0.73 1.09 1.75 2.35 2.53 2.65 2.53 2.08 1.66 1.44
0.94 0.91 0.78 0.75 0.76 0.74 0.74 0.70 0.64 0.62 0.62 0.60 0.57 0.53 0.53 0.49 0.38 0.41 0.35 0.20 0.16 0.15 0.14 0.13 0.13 0.13 0.15 0.20 0.27 0.38 0.45 0.46 0.47 0.58 0.71 1.09 1.84 2.50 2.73 2.65 2.35 1.97 1.61
1.04 0.95 0.90 0.81 0.78 0.74 0.72 0.72 0.72 0.64 0.60 0.62 0.61 0.56 0.50 0.46 0.41 0.43 0.46 0.33 0.23 0.17 0.17 0.16 0.15 0.15 0.16 0.17 0.21 0.28 0.34 0.42 0.47 0.52 0.53 0.60 0.97 1.80 2.59 2.84 2.60 2.25 1.95
1.06 0.95 0.91 0.85 0.79 0.79 0.79 0.76 0.74 0.69 0.65 0.62 0.60 0.57 0.52 0.44 0.44 0.48 0.53 0.56 0.47 0.25 0.18 0.16 0.13 0.14 0.17 0.17 0.20 0.24 0.24 0.30 0.38 0.44 0.47 0.49 0.57 0.92 1.71 2.64 3.18 2.87 2.37
1.15 1.09 1.00 0.96 0.88 0.86 0.83 0.82 0.79 0.72 0.71 0.69 0.65 0.61 0.60 0.52 0.49 0.49 0.51 0.61 0.76 0.57 0.24 0.13 0.13 0.14 0.15 0.18 0.24 0.23 0.21 0.25 0.31 0.38 0.42 0.45 0.50 0.61 0.93 1.60 2.57 3.26 3.14
1.23 1.24 1.19 1.14 1.04 1.00 0.96 0.92 0.88 0.78 0.76 0.74 0.72 0.68 0.66 0.62 0.56 0.55 0.56 0.56 0.63 0.68 0.45 0.16 0.14 0.15 0.17 0.19 0.25 0.25 0.25 0.28 0.29 0.33 0.38 0.40 0.45 0.55 0.70 1.01 1.61 2.53 3.14
1.29 1.30 1.32 1.30 1.25 1.15 1.11 1.09 1.03 0.95 0.89 0.80 0.77 0.76 0.72 0.66 0.63 0.56 0.57 0.57 0.56 0.60 0.58 0.23 0.14 0.17 0.24 0.26 0.27 0.26 0.27 0.25 0.22 0.26 0.32 0.38 0.43 0.51 0.64 0.82 1.10 1.70 2.58
1.28 1.30 1.39 1.42 1.39 1.29 1.21 1.21 1.21 1.13 1.08 1.00 0.92 0.88 0.83 0.80 0.77 0.70 0.68 0.64 0.58 0.54 0.59 0.43 0.21 0.17 0.25 0.32 0.38 0.36 0.30 0.26 0.22 0.24 0.28 0.34 0.41 0.47 0.59 0.73 0.90 1.19 1.78
1.24 1.32 1.45 1.56 1.53 1.49 1.38 1.24 1.28 1.35 1.33 1.26 1.18 1.14 1.07 1.01 1.00 0.92 0.87 0.78 0.66 0.56 0.54 0.53 0.35 0.23 0.26 0.35 0.46 0.47 0.41 0.33 0.25 0.25 0.28 0.32 0.37 0.42 0.49 0.60 0.74 0.91 1.18
1.17 1.34 1.44 1.59 1.66 1.71 1.79 1.66 1.52 1.41 1.37 1.37 1.33 1.29 1.29 1.27 1.24 1.18 1.13 0.95 0.78 0.70 0.64 0.63 0.51 0.37 0.32 0.38 0.57 0.62 0.57 0.47 0.34 0.27 0.30 0.31 0.35 0.41 0.42 0.44 0.49 0.64 0.90
1.14 1.28 1.39 1.48 1.52 1.73 2.17 2.26 1.84 1.35 1.23 1.23 1.17 1.12 1.14 1.27 1.36 1.40 1.40 1.23 1.08 1.03 0.93 0.86 0.73 0.59 0.49 0.52 0.67 0.71 0.74 0.66 0.56 0.43 0.34 0.27 0.28 0.29 0.30 0.35 0.43 0.54 0.72
1.11 1.23 1.30 1.32 1.33 1.51 2.01 2.15 1.68 1.25 1.08 1.06 1.04 0.96 0.93 1.04 1.12 1.19 1.31 1.33 1.35 1.41 1.33 1.17 1.00 0.83 0.64 0.58 0.65 0.82 0.89 0.95 0.88 0.61 0.52 0.42 0.36 0.33 0.29 0.28 0.33 0.43 0.61
1.04 1.11 1.15 1.13 1.14 1.30 1.69 1.77 1.48 1.17 1.01 0.89 0.85 0.82 0.79 0.81 0.91 0.87 0.97 1.09 1.19 1.34 1.44 1.39 1.31 1.03 0.77 0.65 0.75 0.92 0.98 1.03 0.93 0.77 0.79 0.76 0.60 0.49 0.40 0.38 0.42 0.44 0.53
0.99 0.98 0.98 0.95 0.95 1.07 1.46 1.62 1.42 1.12 1.03 0.92 0.84 0.74 0.69 0.68 0.80 0.87 0.92 0.92 0.90 1.03 1.25 1.38 1.45 1.25 0.99 0.88 1.01 1.18 1.27 1.24 1.07 1.00 1.02 1.06 0.82 0.65 0.58 0.53 0.51 0.47 0.48
0.88 0.87 0.85 0.87 0.83 0.89 1.29 1.64 1.54 1.17 1.12 1.03 0.92 0.82 0.74 0.65 0.86 0.95 0.87 0.79 0.72 0.78 0.93 1.17 1.33 1.33 1.26 1.24 1.30 1.48 1.57 1.60 1.47 1.22 1.17 1.21 1.05 0.83 0.77 0.77 0.70 0.58 0.49
0.73 0.77 0.74 0.76 0.74 0.75 1.04 1.54 1.67 1.24 1.13 1.04 0.96 0.89 0.93 0.87 0.95 0.92 0.78 0.77 0.79 0.71 0.68 0.76 0.84 0.91 0.91 0.93 1.12 1.31 1.42 1.54 1.55 1.56 1.34 1.26 1.30 1.22 1.25 1.01 0.81 0.59 0.50

GEFSMA_prec_meanprecacc_198.txt.gz
Total_Precipitation_Accumulation
0.57 0.53 0.52 0.51 0.48 0.46 0.46 0.47 0.48 0.47 0.46 0.43 0.39 0.35 0.35 0.36 0.31 0.25 0.20 0.18 0.15 0.16 0.25 0.42 0.67 0.94 1.13 1.22 1.20 1.04 0.96 0.83 0.66 0.58 0.55 0.62 0.64 0.63 0.67 0.78 0.76 0.66 0.63
0.52 0.46 0.44 0.43 0.39 0.35 0.33 0.33 0.33 0.34 0.35 0.35 0.31 0.27 0.28 0.31 0.31 0.29 0.28 0.28 0.22 0.19 0.22 0.31 0.47 0.72 1.03 1.23 1.30 1.25 1.11 1.02 0.85 0.67 0.59 0.59 0.64 0.65 0.65 0.71 0.80 0.78 0.68
0.54 0.50 0.46 0.42 0.39 0.37 0.38 0.37 0.36 0.34 0.31 0.29 0.27 0.24 0.23 0.23 0.27 0.28 0.30 0.32 0.31 0.27 0.25 0.30 0.39 0.57 0.89 1.18 1.33 1.43 1.32 1.16 1.05 0.91 0.71 0.60 0.62 0.67 0.66 0.70 0.78 0.86 0.83
0.55 0.53 0.51 0.47 0.44 0.44 0.44 0.44 0.40 0.37 0.33 0.30 0.28 0.26 0.24 0.22 0.20 0.22 0.27 0.28 0.29 0.29 0.27 0.28 0.37 0.54 0.75 1.04 1.31 1.54 1.60 1.41 1.29 1.22 1.03 0.81 0.66 0.68 0.71 0.71 0.78 0.87 0.95
0.56 0.54 0.52 0.52 0.54 0.56 0.53 0.49 0.45 0.40 0.37 0.33 0.31 0.29 0.27 0.24 0.21 0.22 0.24 0.28 0.29 0.28 0.28 0.29 0.33 0.43 0.59 0.86 1.24 1.57 1.88 1.88 1.67 1.52 1.35 1.16 0.93 0.77 0.77 0.76 0.80 0.88 0.98
0.62 0.59 0.57 0.57 0.61 0.63 0.59 0.55 0.48 0.43 0.40 0.39 0.39 0.37 0.31 0.26 0.24 0.23 0.22 0.25 0.28 0.29 0.29 0.32 0.36 0.33 0.37 0.52 0.79 1.20 1.59 1.91 1.94 1.80 1.68 1.48 1.27 1.06 0.93 0.87 0.85 0.93 1.04
0.70 0.68 0.63 0.64 0.62 0.64 0.61 0.57 0.55 0.53 0.47 0.45 0.49 0.50 0.43 0.34 0.29 0.25 0.25 0.27 0.28 0.33 0.39 0.44 0.49 0.47 0.39 0.41 0.44 0.60 0.98 1.51 1.85 1.97 1.94 1.87 1.65 1.40 1.20 1.05 1.00 1.04 1.11
0.73 0.79 0.73 0.67 0.66 0.63 0.65 0.65 0.62 0.61 0.59 0.53 0.53 0.59 0.54 0.47 0.37 0.28 0.27 0.28 0.32 0.39 0.50 0.54 0.58 0.59 0.53 0.44 0.34 0.35 0.49 0.89 1.46 1.91 2.03 2.02 2.06 1.88 1.55 1.31 1.18 1.20 1.28
0.68 0.76 0.80 0.74 0.70 0.67 0.64 0.63 0.62 0.60 0.61 0.54 0.51 0.68 0.74 0.53 0.34 0.24 0.22 0.23 0.25 0.27 0.31 0.38 0.45 0.48 0.53 0.53 0.45 0.37 0.36 0.53 0.94 1.57 2.06 2.14 2.17 2.28 2.07 1.66 1.41 1.34 1.37
0.73 0.70 0.77 0.79 0.77 0.75 0.71 0.65 0.63 0.61 0.65 0.65 0.54 0.50 0.54 0.53 0.53 0.36 0.21 0.18 0.18 0.19 0.19 0.21 0.26 0.32 0.41 0.50 0.53 0.48 0.43 0.44 0.66 1.08 1.74 2.27 2.32 2.41 2.52 2.18 1.75 1.49 1.41
0.86 0.77 0.74 0.78 0.80 0.79 0.78 0.72 0.67 0.67 0.68 0.70 0.65 0.54 0.47 0.40 0.42 0.50 0.33 0.21 0.20 0.17 0.16 0.16 0.18 0.21 0.25 0.35 0.43 0.48 0.51 0.46 0.57 0.81 1.19 1.86 2.45 2.62 2.72 2.59 2.13 1.71 1.48
0.96 0.93 0.80 0.77 0.79 0.79 0.80 0.77 0.71 0.68 0.69 0.68 0.66 0.61 0.61 0.56 0.44 0.47 0.41 0.25 0.21 0.19 0.18 0.17 0.17 0.17 0.19 0.24 0.31 0.43 0.50 0.51 0.52 0.65 0.79 1.18 1.94 2.61 2.82 2.71 2.41 2.03 1.66
1.07 0.96 0.92 0.83 0.80 0.79 0.79 0.79 0.78 0.71 0.67 0.71 0.72 0.67 0.61 0.56 0.49 0.51 0.54 0.42 0.32 0.24 0.23 0.23 0.19 0.19 0.20 0.21 0.25 0.33 0.40 0.47 0.52 0.59 0.60 0.67 1.05 1.89 2.69 2.92 2.67 2.31 2.00
1.08 0.96 0.93 0.87 0.82 0.83 0.85 0.83 0.80 0.76 0.72 0.68 0.67 0.65 0.62 0.55 0.55 0.58 0.63 0.67 0.59 0.36 0.26 0.23 0.20 0.19 0.21 0.22 0.25 0.29 0.29 0.36 0.44 0.50 0.53 0.55 0.62 0.98 1.78 2.72 3.24 2.93 2.42
1.19 1.12 1.03 0.98 0.91 0.89 0.87 0.87 0.84 0.78 0.77 0.76 0.72 0.68 0.67 0.59 0.57 0.57 0.59 0.70 0.86 0.67 0.32 0.20 0.20 0.21 0.21 0.24 0.29 0.29 0.27 0.32 0.38 0.45 0.48 0.51 0.56 0.67 0.98 1.66 2.62 3.30 3.18
1.30 1.31 1.25 1.18 1.08 1.03 1.00 0.96 0.92 0.83 0.81 0.80 0.80 0.76 0.72 0.69 0.64 0.61 0.61 0.62 0.69 0.75 0.52 0.21 0.19 0.21 0.25 0.26 0.32 0.31 0.30 0.36 0.38 0.42 0.45 0.46 0.50 0.60 0.76 1.06 1.65 2.57 3.18
1.36 1.41 1.45 1.39 1.31 1.21 1.17 1.15 1.08 1.01 0.94 0.86 0.84 0.84 0.79 0.73 0.71 0.64 0.63 0.62 0.60 0.65 0.64 0.28 0.18 0.22 0.30 0.34 0.35 0.34 0.35 0.34 0.32 0.35 0.40 0.46 0.49 0.56 0.69 0.88 1.15 1.74 2.61
1.32 1.37 1.54 1.56 1.50 1.39 1.30 1.31 1.31 1.21 1.15 1.05 0.98 0.96 0.91 0.87 0.86 0.78 0.75 0.69 0.62 0.58 0.65 0.49 0.25 0.23 0.31 0.40 0.45 0.44 0.39 0.36 0.32 0.37 0.39 0.43 0.48 0.53 0.63 0.78 0.96 1.25 1.82
1.28 1.38 1.54 1.66 1.62 1.58 1.48 1.35 1.40 1.49 1.44 1.34 1.26 1.23 1.15 1.09 1.08 1.00 0.94 0.83 0.70 0.60 0.59 0.58 0.41 0.30 0.34 0.43 0.55 0.56 0.51 0.46 0.38 0.39 0.41 0.42 0.46 0.48 0.54 0.64 0.79 0.97 1.24
1.22 1.40 1.51 1.68 1.74 1.79 1.86 1.74 1.62 1.54 1.52 1.50 1.44 1.40 1.41 1.38 1.33 1.26 1.21 1.02 0.84 0.76 0.69 0.68 0.56 0.43 0.41 0.47 0.68 0.75 0.70 0.61 0.51 0.40 0.42 0.42 0.45 0.48 0.47 0.49 0.55 0.70 0.97
1.21 1.35 1.46 1.58 1.62 1.82 2.27 2.35 1.94 1.45 1.32 1.33 1.28 1.23 1.28 1.40 1.47 1.49 1.49 1.32 1.16 1.12 1.01 0.93 0.80 0.65 0.56 0.61 0.77 0.84 0.88 0.80 0.72 0.58 0.46 0.37 0.37 0.36 0.36 0.40 0.49 0.60 0.78
1.19 1.31 1.38 1.40 1.44 1.62 2.12 2.25 1.79 1.35 1.17 1.15 1.14 1.07 1.06 1.16 1.22 1.29 1.40 1.41 1.44 1.51 1.44 1.26 1.07 0.90 0.70 0.64 0.73 0.95 1.03 1.09 1.03 0.75 0.63 0.52 0.43 0.40 0.36 0.33 0.40 0.49 0.66
1.11 1.17 1.22 1.21 1.20 1.37 1.78 1.87 1.59 1.29 1.12 1.01 0.98 0.96 0.94 0.93 1.02 0.96 1.07 1.19 1.30 1.46 1.55 1.50 1.41 1.10 0.85 0.75 0.87 1.05 1.11 1.14 1.03 0.88 0.89 0.87 0.69 0.57 0.48 0.45 0.48 0.49 0.58
1.06 1.04 1.04 1.02 1.03 1.14 1.55 1.73 1.56 1.26 1.18 1.08 1.00 0.89 0.83 0.83 0.94 0.99 1.05 1.05 1.03 1.14 1.36 1.49 1.56 1.35 1.09 1.01 1.17 1.35 1.42 1.38 1.19 1.09 1.11 1.16 0.92 0.75 0.68 0.62 0.59 0.53 0.53
0.93 0.92 0.91 0.94 0.92 0.99 1.41 1.77 1.67 1.31 1.28 1.20 1.08 0.98 0.89 0.80 1.01 1.11 1.02 0.94 0.86 0.91 1.05 1.29 1.45 1.45 1.39 1.38 1.49 1.68 1.75 1.75 1.60 1.33 1.26 1.31 1.15 0.93 0.87 0.86 0.77 0.64 0.53
0.79 0.82 0.79 0.82 0.82 0.87 1.19 1.69 1.81 1.34 1.24 1.17 1.09 1.04 1.10 1.03 1.10 1.06 0.92 0.91 0.93 0.83 0.80 0.88 0.96 1.03 1.05 1.07 1.27 1.47 1.57 1.68 1.67 1.66 1.43 1.35 1.38 1.30 1.35 1.11 0.88 0.65 0.54

GEFSMA_prec_meanprecacc_204.txt.gz
Total_Precipitation_Accumulation
0.58 0.54 0.53 0.52 0.49 0.48 0.48 0.50 0.52 0.51 0.49 0.45 0.40 0.36 0.36 0.38 0.34 0.29 0.23 0.22 0.19 0.20 0.29 0.46 0.73 1.00 1.20 1.29 1.27 1.11 1.02 0.88 0.71 0.61 0.57 0.64 0.66 0.65 0.68 0.79 0.77 0.67 0.65
0.53 0.47 0.45 0.44 0.41 0.37 0.35 0.36 0.37 0.38 0.39 0.37 0.33 0.29 0.30 0.33 0.33 0.32 0.31 0.31 0.26 0.23 0.26 0.36 0.52 0.78 1.10 1.31 1.39 1.33 1.18 1.08 0.90 0.72 0.63 0.62 0.67 0.67 0.67 0.73 0.82 0.79 0.69
0.54 0.51 0.47 0.43 0.41 0.41 0.40 0.39 0.39 0.38 0.35 0.32 0.29 0.26 0.25 0.25 0.29 0.31 0.32 0.34 0.34 0.31 0.29 0.35 0.45 0.64 0.96 1.27 1.42 1.53 1.40 1.24 1.12 0.96 0.76 0.64 0.66 0.71 0.70 0.73 0.80 0.88 0.85
0.56 0.53 0.52 0.48 0.47 0.49 0.49 0.48 0.44 0.42 0.38 0.34 0.32 0.29 0.27 0.24 0.22 0.25 0.30 0.31 0.32 0.32 0.31 0.33 0.44 0.61 0.83 1.12 1.39 1.62 1.69 1.50 1.38 1.30 1.10 0.86 0.71 0.72 0.76 0.77 0.82 0.90 0.98
0.57 0.54 0.52 0.53 0.56 0.60 0.58 0.54 0.50 0.45 0.42 0.38 0.36 0.33 0.30 0.27 0.24 0.25 0.27 0.31 0.32 0.31 0.31 0.32 0.38 0.49 0.66 0.93 1.32 1.66 1.97 1.97 1.77 1.64 1.46 1.25 0.99 0.81 0.81 0.81 0.84 0.91 1.01
0.63 0.61 0.58 0.58 0.62 0.65 0.63 0.60 0.53 0.48 0.45 0.44 0.44 0.41 0.34 0.28 0.26 0.26 0.25 0.28 0.31 0.32 0.32 0.36 0.40 0.38 0.44 0.59 0.88 1.30 1.70 2.03 2.05 1.93 1.81 1.60 1.36 1.13 0.98 0.92 0.90 0.97 1.08
0.71 0.70 0.64 0.65 0.64 0.65 0.62 0.59 0.58 0.56 0.51 0.49 0.54 0.54 0.47 0.37 0.31 0.27 0.27 0.29 0.31 0.35 0.42 0.47 0.54 0.50 0.43 0.46 0.50 0.67 1.08 1.64 2.00 2.13 2.09 2.01 1.77 1.50 1.28 1.11 1.06 1.09 1.16
0.73 0.79 0.73 0.68 0.67 0.65 0.66 0.67 0.65 0.64 0.63 0.57 0.57 0.63 0.58 0.51 0.40 0.30 0.29 0.31 0.34 0.42 0.53 0.58 0.63 0.64 0.57 0.48 0.37 0.39 0.54 0.98 1.59 2.07 2.20 2.19 2.22 2.03 1.67 1.40 1.26 1.27 1.33
0.68 0.76 0.80 0.74 0.70 0.68 0.65 0.64 0.63 0.62 0.64 0.58 0.54 0.72 0.78 0.57 0.37 0.28 0.25 0.26 0.28 0.30 0.34 0.41 0.48 0.53 0.59 0.58 0.48 0.40 0.40 0.59 1.03 1.69 2.20 2.29 2.33 2.43 2.22 1.77 1.50 1.42 1.44
0.73 0.70 0.78 0.80 0.78 0.75 0.71 0.66 0.64 0.63 0.68 0.69 0.58 0.54 0.58 0.57 0.56 0.39 0.25 0.23 0.22 0.23 0.22 0.24 0.29 0.35 0.46 0.55 0.58 0.53 0.47 0.48 0.72 1.17 1.86 2.41 2.48 2.58 2.68 2.33 1.86 1.59 1.49
0.86 0.77 0.74 0.79 0.80 0.80 0.79 0.73 0.69 0.70 0.72 0.74 0.70 0.59 0.52 0.45 0.46 0.54 0.37 0.25 0.25 0.23 0.22 0.22 0.23 0.24 0.29 0.39 0.47 0.52 0.55 0.50 0.61 0.86 1.28 1.98 2.60 2.80 2.92 2.77 2.28 1.83 1.58
0.96 0.93 0.80 0.78 0.79 0.80 0.81 0.79 0.73 0.71 0.73 0.73 0.70 0.66 0.66 0.62 0.49 0.52 0.46 0.30 0.26 0.24 0.24 0.24 0.24 0.24 0.25 0.29 0.34 0.46 0.53 0.55 0.56 0.69 0.86 1.28 2.07 2.75 3.01 2.92 2.58 2.17 1.77
1.07 0.97 0.92 0.83 0.81 0.80 0.80 0.81 0.81 0.75 0.71 0.75 0.77 0.72 0.66 0.61 0.54 0.58 0.62 0.49 0.38 0.30 0.30 0.30 0.26 0.27 0.28 0.29 0.32 0.38 0.43 0.50 0.56 0.63 0.66 0.76 1.16 2.03 2.85 3.13 2.88 2.47 2.12
1.09 0.97 0.93 0.87 0.82 0.83 0.86 0.85 0.82 0.80 0.75 0.73 0.72 0.71 0.68 0.61 0.61 0.64 0.70 0.74 0.66 0.43 0.34 0.31 0.28 0.27 0.29 0.30 0.32 0.36 0.34 0.41 0.48 0.55 0.60 0.64 0.73 1.11 1.93 2.89 3.44 3.11 2.57
1.20 1.12 1.04 0.99 0.92 0.90 0.89 0.89 0.86 0.81 0.81 0.81 0.78 0.73 0.73 0.66 0.63 0.63 0.66 0.77 0.94 0.77 0.41 0.27 0.27 0.29 0.29 0.33 0.38 0.35 0.32 0.37 0.43 0.50 0.55 0.61 0.68 0.79 1.12 1.80 2.78 3.47 3.33
1.30 1.31 1.25 1.19 1.09 1.05 1.02 0.99 0.95 0.86 0.84 0.84 0.85 0.81 0.79 0.75 0.69 0.67 0.68 0.67 0.75 0.83 0.61 0.29 0.26 0.30 0.34 0.35 0.42 0.39 0.37 0.42 0.44 0.48 0.52 0.55 0.62 0.73 0.88 1.17 1.77 2.72 3.33
1.36 1.42 1.46 1.40 1.32 1.22 1.18 1.17 1.11 1.03 0.98 0.89 0.88 0.89 0.85 0.80 0.78 0.70 0.69 0.67 0.64 0.71 0.71 0.35 0.26 0.30 0.40 0.44 0.46 0.44 0.43 0.40 0.39 0.43 0.48 0.54 0.58 0.68 0.82 0.99 1.25 1.86 2.75
1.33 1.38 1.56 1.58 1.51 1.41 1.32 1.33 1.33 1.24 1.18 1.09 1.02 1.00 0.96 0.93 0.93 0.85 0.81 0.74 0.66 0.63 0.71 0.56 0.33 0.32 0.40 0.49 0.55 0.54 0.49 0.43 0.41 0.48 0.50 0.53 0.57 0.63 0.76 0.92 1.08 1.34 1.92
1.29 1.39 1.55 1.69 1.65 1.60 1.50 1.38 1.43 1.53 1.48 1.39 1.31 1.27 1.21 1.15 1.14 1.07 0.99 0.87 0.74 0.65 0.65 0.65 0.48 0.38 0.42 0.53 0.67 0.67 0.62 0.55 0.46 0.52 0.54 0.55 0.58 0.60 0.65 0.76 0.93 1.10 1.34
1.24 1.41 1.53 1.70 1.77 1.82 1.89 1.78 1.67 1.59 1.57 1.57 1.53 1.48 1.49 1.46 1.40 1.31 1.26 1.07 0.89 0.82 0.75 0.75 0.63 0.51 0.50 0.57 0.78 0.87 0.83 0.74 0.62 0.53 0.57 0.56 0.59 0.61 0.60 0.60 0.66 0.82 1.08
1.25 1.38 1.48 1.61 1.67 1.87 2.31 2.41 1.99 1.50 1.37 1.38 1.35 1.32 1.39 1.53 1.58 1.57 1.56 1.37 1.21 1.17 1.07 1.01 0.88 0.74 0.65 0.71 0.87 0.94 0.99 0.92 0.85 0.71 0.59 0.51 0.50 0.49 0.49 0.52 0.59 0.71 0.90
1.22 1.35 1.40 1.43 1.48 1.68 2.19 2.31 1.82 1.40 1.22 1.21 1.20 1.15 1.16 1.28 1.35 1.40 1.51 1.51 1.52 1.57 1.49 1.32 1.14 0.98 0.78 0.71 0.81 1.04 1.13 1.21 1.17 0.89 0.75 0.64 0.54 0.52 0.48 0.45 0.50 0.59 0.77
1.15 1.21 1.25 1.24 1.24 1.42 1.85 1.93 1.64 1.34 1.18 1.06 1.05 1.04 1.02 1.04 1.14 1.06 1.16 1.29 1.39 1.54 1.62 1.56 1.46 1.15 0.90 0.80 0.93 1.14 1.22 1.27 1.17 1.00 0.99 1.01 0.81 0.69 0.59 0.55 0.58 0.58 0.68
1.11 1.08 1.09 1.08 1.07 1.19 1.62 1.80 1.65 1.35 1.25 1.14 1.06 0.96 0.91 0.90 1.03 1.09 1.14 1.13 1.10 1.21 1.42 1.54 1.60 1.39 1.14 1.06 1.25 1.45 1.54 1.52 1.35 1.24 1.23 1.30 1.05 0.86 0.77 0.71 0.68 0.61 0.62
0.98 0.97 0.95 1.00 0.97 1.03 1.47 1.85 1.77 1.41 1.38 1.29 1.19 1.10 1.00 0.87 1.08 1.20 1.12 1.04 0.95 0.99 1.13 1.36 1.52 1.51 1.47 1.47 1.59 1.80 1.88 1.89 1.76 1.49 1.39 1.43 1.28 1.05 0.98 0.95 0.86 0.73 0.62
0.84 0.87 0.83 0.87 0.88 0.93 1.25 1.77 1.89 1.43 1.33 1.26 1.19 1.15 1.22 1.13 1.20 1.16 1.02 1.02 1.02 0.92 0.89 0.97 1.05 1.12 1.12 1.14 1.36 1.56 1.66 1.80 1.80 1.80 1.56 1.47 1.49 1.41 1.47 1.22 0.98 0.75 0.63